Location: ????????
(55.3975°N, 38.2844°E)
Time: 05:51:33
(UTC+00:00)

BlueWalker 3 - Pass Details

Date: 21 August 2024
Orbit: 476 x 487 km, 53.2° (Epoch: 08 September)

Event Time Altitude Azimuth Distance (km) Brightness Sun altitude
Exits shadow 22:32:39 18° 108° (ESE) 1,269 3.9 -21.6°
Drops below altitude 10° 22:33:43 10° 105° (ESE) 1,684 4.6 -21.6°
Sets 22:35:55 0° 102° (ESE) 2,566 5.6 -21.5°
